QPF
0.05 0.02 0.02 0.02 0.03 0.03 0.03 0.02 0.01 0.01 0.01 0.01 0.01 0.01 0.01 0.01 0.01 0.02 0.01 0.01 0.00 0.01 0.02 0.03 0.04 0.05 0.05 0.05 0.05 0.04 0.03 0.02 0.02 0.02 0.02 0.02 0.01 0.01 0.01 0.01 0.01 0.01 0.02
0.07 0.04 0.03 0.02 0.03 0.03 0.04 0.04 0.02 0.02 0.01 0.01 0.01 0.01 0.01 0.01 0.01 0.02 0.02 0.02 0.01 0.01 0.01 0.02 0.04 0.06 0.06 0.05 0.05 0.06 0.05 0.03 0.02 0.03 0.02 0.02 0.02 0.01 0.01 0.01 0.01 0.01 0.01
0.08 0.05 0.04 0.03 0.03 0.03 0.03 0.04 0.04 0.03 0.02 0.01 0.01 0.02 0.01 0.01 0.01 0.01 0.02 0.03 0.03 0.01 0.01 0.02 0.03 0.05 0.07 0.07 0.07 0.07 0.06 0.05 0.04 0.03 0.03 0.03 0.03 0.02 0.02 0.02 0.01 0.01 0.01
0.07 0.05 0.03 0.03 0.03 0.04 0.04 0.05 0.04 0.04 0.03 0.02 0.02 0.02 0.02 0.01 0.01 0.01 0.01 0.02 0.02 0.02 0.01 0.01 0.01 0.03 0.05 0.06 0.07 0.08 0.08 0.07 0.05 0.04 0.02 0.02 0.02 0.02 0.03 0.02 0.02 0.01 0.01
0.05 0.05 0.02 0.02 0.03 0.03 0.03 0.04 0.05 0.05 0.04 0.03 0.03 0.02 0.01 0.01 0.01 0.01 0.01 0.01 0.01 0.02 0.02 0.02 0.02 0.02 0.03 0.05 0.05 0.07 0.10 0.10 0.08 0.05 0.03 0.02 0.02 0.01 0.02 0.02 0.02 0.02 0.02
0.05 0.04 0.02 0.01 0.01 0.02 0.02 0.02 0.03 0.06 0.06 0.05 0.04 0.02 0.01 0.01 0.01 0.01 0.02 0.02 0.02 0.01 0.01 0.02 0.02 0.02 0.04 0.05 0.05 0.05 0.07 0.10 0.09 0.07 0.05 0.04 0.03 0.02 0.02 0.02 0.02 0.03 0.03
0.03 0.03 0.02 0.01 0.00 0.01 0.02 0.02 0.01 0.03 0.07 0.09 0.07 0.04 0.02 0.01 0.01 0.01 0.01 0.01 0.01 0.01 0.01 0.02 0.03 0.04 0.04 0.06 0.06 0.04 0.04 0.07 0.09 0.08 0.07 0.07 0.06 0.05 0.04 0.03 0.03 0.03 0.03
0.01 0.02 0.02 0.01 0.00 0.01 0.03 0.05 0.04 0.03 0.03 0.06 0.08 0.07 0.04 0.03 0.01 0.01 0.01 0.01 0.01 0.02 0.02 0.03 0.03 0.04 0.05 0.06 0.07 0.06 0.04 0.05 0.08 0.09 0.08 0.06 0.06 0.06 0.05 0.05 0.04 0.04 0.04
0.00 0.00 0.01 0.01 0.00 0.00 0.01 0.03 0.05 0.06 0.05 0.04 0.06 0.08 0.08 0.06 0.03 0.02 0.01 0.01 0.01 0.01 0.02 0.03 0.04 0.05 0.05 0.06 0.07 0.07 0.06 0.06 0.06 0.10 0.10 0.08 0.06 0.06 0.06 0.05 0.05 0.05 0.05
0.00 0.00 0.00 0.01 0.00 0.00 0.01 0.01 0.01 0.03 0.04 0.04 0.04 0.05 0.06 0.06 0.06 0.04 0.03 0.02 0.01 0.01 0.01 0.01 0.01 0.02 0.03 0.04 0.05 0.06 0.07 0.07 0.07 0.09 0.11 0.12 0.09 0.07 0.07 0.08 0.07 0.06 0.05
0.00 0.00 0.00 0.00 0.00 0.00 0.00 0.01 0.02 0.03 0.04 0.05 0.05 0.04 0.03 0.03 0.03 0.04 0.03 0.02 0.02 0.02 0.02 0.02 0.02 0.02 0.02 0.03 0.03 0.04 0.04 0.04 0.06 0.07 0.10 0.14 0.14 0.11 0.10 0.09 0.09 0.08 0.06
0.00 0.00 0.00 0.00 0.00 0.00 0.00 0.00 0.01 0.02 0.03 0.04 0.05 0.05 0.04 0.03 0.03 0.03 0.02 0.02 0.01 0.01 0.02 0.02 0.02 0.02 0.02 0.02 0.03 0.03 0.03 0.02 0.03 0.05 0.07 0.12 0.15 0.15 0.11 0.09 0.07 0.06 0.06
0.00 0.00 0.00 0.00 0.00 0.00 0.00 0.00 0.00 0.01 0.01 0.01 0.02 0.02 0.03 0.03 0.03 0.03 0.02 0.02 0.02 0.01 0.01 0.02 0.02 0.02 0.02 0.02 0.02 0.02 0.02 0.02 0.02 0.03 0.05 0.08 0.13 0.15 0.12 0.09 0.08 0.06 0.05
0.00 0.00 0.00 0.00 0.00 0.00 0.00 0.00 0.00 0.00 0.00 0.00 0.01 0.01 0.01 0.02 0.02 0.02 0.03 0.03 0.03 0.02 0.02 0.02 0.01 0.01 0.01 0.01 0.02 0.02 0.02 0.02 0.02 0.02 0.04 0.05 0.07 0.11 0.12 0.11 0.10 0.09 0.07
0.01 0.00 0.00 0.00 0.00 0.00 0.00 0.00 0.00 0.00 0.00 0.00 0.00 0.00 0.00 0.01 0.01 0.01 0.02 0.02 0.03 0.03 0.02 0.02 0.02 0.02 0.02 0.02 0.03 0.03 0.02 0.03 0.03 0.02 0.03 0.03 0.04 0.06 0.07 0.07 0.08 0.08 0.08
0.01 0.01 0.00 0.00 0.00 0.00 0.00 0.00 0.00 0.00 0.00 0.00 0.00 0.00 0.00 0.01 0.01 0.01 0.01 0.02 0.02 0.03 0.02 0.01 0.01 0.02 0.02 0.02 0.03 0.03 0.02 0.02 0.02 0.02 0.02 0.02 0.03 0.03 0.04 0.05 0.05 0.06 0.06
0.01 0.01 0.01 0.01 0.01 0.01 0.00 0.00 0.00 0.00 0.00 0.00 0.00 0.00 0.00 0.00 0.00 0.00 0.01 0.01 0.01 0.02 0.02 0.02 0.01 0.01 0.02 0.02 0.02 0.02 0.02 0.02 0.01 0.01 0.01 0.01 0.02 0.02 0.03 0.03 0.03 0.03 0.04
0.00 0.01 0.01 0.01 0.01 0.01 0.01 0.00 0.00 0.00 0.00 0.00 0.00 0.00 0.00 0.01 0.00 0.00 0.00 0.01 0.01 0.01 0.01 0.01 0.01 0.01 0.02 0.02 0.01 0.01 0.01 0.01 0.01 0.01 0.01 0.01 0.01 0.02 0.02 0.03 0.03 0.03 0.03
0.00 0.00 0.01 0.01 0.01 0.01 0.01 0.01 0.00 0.00 0.00 0.00 0.00 0.00 0.00 0.00 0.00 0.00 0.00 0.00 0.01 0.00 0.01 0.01 0.01 0.01 0.01 0.02 0.02 0.02 0.02 0.02 0.01 0.01 0.01 0.01 0.01 0.01 0.01 0.01 0.02 0.03 0.03
0.00 0.00 0.00 0.01 0.00 0.01 0.01 0.01 0.01 0.01 0.00 0.00 0.00 0.00 0.00 0.00 0.00 0.00 0.00 0.00 0.00 0.01 0.01 0.01 0.01 0.01 0.01 0.01 0.02 0.02 0.02 0.03 0.02 0.02 0.01 0.01 0.02 0.01 0.01 0.01 0.01 0.01 0.02
0.00 0.00 0.00 0.00 0.00 0.00 0.01 0.01 0.01 0.01 0.00 0.00 0.00 0.00 0.00 0.00 0.00 0.00 0.00 0.01 0.01 0.01 0.01 0.01 0.01 0.01 0.01 0.01 0.01 0.02 0.02 0.02 0.02 0.02 0.02 0.02 0.02 0.02 0.01 0.01 0.01 0.01 0.01
0.00 0.00 0.00 0.00 0.00 0.00 0.00 0.01 0.01 0.00 0.00 0.00 0.00 0.00 0.00 0.00 0.00 0.00 0.00 0.01 0.01 0.01 0.02 0.02 0.02 0.02 0.02 0.01 0.01 0.01 0.02 0.02 0.02 0.01 0.01 0.02 0.02 0.03 0.03 0.03 0.02 0.02 0.01
0.00 0.00 0.00 0.00 0.00 0.00 0.00 0.00 0.01 0.00 0.00 0.00 0.00 0.00 0.00 0.00 0.00 0.00 0.00 0.00 0.00 0.01 0.01 0.02 0.02 0.02 0.01 0.01 0.01 0.01 0.01 0.02 0.02 0.01 0.02 0.03 0.02 0.02 0.02 0.02 0.02 0.02 0.02
0.00 0.00 0.00 0.00 0.00 0.00 0.00 0.00 0.00 0.00 0.00 0.00 0.00 0.00 0.00 0.00 0.00 0.00 0.00 0.00 0.00 0.01 0.01 0.01 0.02 0.02 0.02 0.01 0.01 0.01 0.01 0.02 0.02 0.02 0.02 0.03 0.03 0.02 0.02 0.02 0.02 0.02 0.02
0.00 0.00 0.00 0.00 0.00 0.00 0.00 0.00 0.00 0.00 0.00 0.00 0.00 0.00 0.00 0.00 0.00 0.01 0.01 0.01 0.01 0.01 0.01 0.01 0.02 0.02 0.02 0.02 0.01 0.02 0.02 0.03 0.03 0.03 0.03 0.02 0.02 0.02 0.02 0.03 0.03 0.03 0.03
0.01 0.01 0.01 0.01 0.00 0.00 0.00 0.00 0.00 0.00 0.00 0.00 0.00 0.00 0.00 0.00 0.01 0.01 0.01 0.01 0.01 0.01 0.01 0.01 0.01 0.02 0.02 0.02 0.01 0.01 0.02 0.03 0.03 0.03 0.03 0.02 0.02 0.02 0.03 0.02 0.03 0.03 0.03
MSLP
1018.30 1018.33 1018.36 1018.41 1018.47 1018.54 1018.59 1018.61 1018.58 1018.49 1018.36 1018.18 1017.98 1017.77 1017.58 1017.43 1017.32 1017.26 1017.23 1017.21 1017.18 1017.11 1016.99 1016.79 1016.53 1016.22 1015.88 1015.55 1015.27 1015.05 1014.92 1014.88 1014.94 1015.07 1015.25 1015.45 1015.63 1015.80 1015.93 1016.02 1016.08 1016.12 1016.14
1018.55 1018.55 1018.56 1018.58 1018.62 1018.67 1018.70 1018.71 1018.68 1018.59 1018.44 1018.25 1018.04 1017.81 1017.60 1017.43 1017.30 1017.21 1017.16 1017.13 1017.10 1017.03 1016.91 1016.72 1016.46 1016.13 1015.76 1015.38 1015.03 1014.74 1014.54 1014.44 1014.43 1014.52 1014.66 1014.84 1015.02 1015.19 1015.33 1015.42 1015.49 1015.53 1015.56
1018.84 1018.82 1018.81 1018.80 1018.82 1018.84 1018.85 1018.84 1018.79 1018.69 1018.54 1018.34 1018.11 1017.87 1017.63 1017.43 1017.26 1017.14 1017.06 1017.01 1016.97 1016.90 1016.79 1016.61 1016.36 1016.04 1015.67 1015.27 1014.88 1014.53 1014.26 1014.09 1014.01 1014.03 1014.12 1014.26 1014.41 1014.56 1014.69 1014.78 1014.84 1014.88 1014.91
1019.14 1019.11 1019.08 1019.06 1019.05 1019.04 1019.02 1018.99 1018.92 1018.80 1018.64 1018.43 1018.19 1017.94 1017.68 1017.44 1017.23 1017.07 1016.95 1016.87 1016.80 1016.73 1016.62 1016.47 1016.25 1015.95 1015.60 1015.20 1014.80 1014.42 1014.09 1013.85 1013.70 1013.65 1013.67 1013.75 1013.86 1013.97 1014.06 1014.13 1014.18 1014.21 1014.23
1019.41 1019.39 1019.36 1019.33 1019.29 1019.25 1019.20 1019.14 1019.04 1018.91 1018.74 1018.54 1018.29 1018.03 1017.76 1017.49 1017.25 1017.04 1016.87 1016.74 1016.64 1016.55 1016.45 1016.32 1016.13 1015.88 1015.56 1015.19 1014.79 1014.40 1014.04 1013.74 1013.52 1013.39 1013.34 1013.35 1013.39 1013.45 1013.50 1013.54 1013.56 1013.57 1013.58
1019.61 1019.62 1019.61 1019.57 1019.52 1019.46 1019.38 1019.29 1019.17 1019.03 1018.87 1018.67 1018.44 1018.18 1017.90 1017.62 1017.34 1017.09 1016.86 1016.68 1016.54 1016.43 1016.33 1016.21 1016.06 1015.85 1015.58 1015.25 1014.88 1014.49 1014.11 1013.77 1013.49 1013.29 1013.16 1013.09 1013.06 1013.05 1013.06 1013.05 1013.04 1013.02 1013.01
1019.74 1019.78 1019.79 1019.77 1019.72 1019.65 1019.55 1019.44 1019.32 1019.18 1019.02 1018.85 1018.64 1018.41 1018.14 1017.85 1017.55 1017.26 1016.99 1016.76 1016.57 1016.42 1016.30 1016.19 1016.07 1015.91 1015.69 1015.41 1015.07 1014.70 1014.32 1013.95 1013.62 1013.35 1013.14 1013.00 1012.89 1012.82 1012.77 1012.72 1012.67 1012.61 1012.57
1019.77 1019.87 1019.91 1019.92 1019.88 1019.81 1019.71 1019.60 1019.48 1019.36 1019.23 1019.09 1018.93 1018.73 1018.49 1018.21 1017.90 1017.58 1017.27 1016.98 1016.74 1016.56 1016.42 1016.31 1016.20 1016.08 1015.91 1015.68 1015.39 1015.05 1014.67 1014.29 1013.92 1013.60 1013.32 1013.10 1012.93 1012.79 1012.68 1012.58 1012.49 1012.40 1012.32
1019.74 1019.88 1019.97 1020.01 1020.00 1019.94 1019.86 1019.77 1019.67 1019.58 1019.49 1019.40 1019.29 1019.14 1018.93 1018.67 1018.37 1018.03 1017.68 1017.35 1017.07 1016.84 1016.68 1016.56 1016.47 1016.38 1016.25 1016.08 1015.83 1015.53 1015.17 1014.78 1014.39 1014.03 1013.70 1013.41 1013.18 1012.98 1012.82 1012.68 1012.54 1012.42 1012.31
1019.67 1019.85 1019.98 1020.06 1020.08 1020.05 1020.00 1019.93 1019.87 1019.81 1019.77 1019.73 1019.67 1019.57 1019.41 1019.18 1018.88 1018.53 1018.17 1017.81 1017.49 1017.24 1017.05 1016.93 1016.85 1016.79 1016.71 1016.58 1016.38 1016.12 1015.79 1015.42 1015.02 1014.63 1014.26 1013.93 1013.65 1013.41 1013.19 1013.01 1012.84 1012.69 1012.54
1019.57 1019.78 1019.95 1020.06 1020.12 1020.13 1020.10 1020.07 1020.04 1020.03 1020.03 1020.04 1020.02 1019.96 1019.84 1019.63 1019.35 1019.01 1018.64 1018.27 1017.93 1017.66 1017.47 1017.35 1017.29 1017.26 1017.22 1017.14 1017.00 1016.79 1016.50 1016.16 1015.77 1015.37 1014.99 1014.63 1014.31 1014.03 1013.78 1013.57 1013.37 1013.18 1013.00
1019.46 1019.69 1019.88 1020.02 1020.11 1020.15 1020.16 1020.15 1020.16 1020.17 1020.21 1020.25 1020.26 1020.23 1020.13 1019.96 1019.70 1019.37 1019.00 1018.64 1018.30 1018.04 1017.85 1017.75 1017.72 1017.73 1017.73 1017.71 1017.63 1017.48 1017.24 1016.94 1016.58 1016.20 1015.82 1015.45 1015.12 1014.81 1014.54 1014.30 1014.08 1013.86 1013.65
1019.32 1019.56 1019.77 1019.92 1020.03 1020.09 1020.12 1020.14 1020.17 1020.21 1020.26 1020.31 1020.34 1020.33 1020.24 1020.08 1019.84 1019.53 1019.19 1018.85 1018.53 1018.29 1018.14 1018.07 1018.07 1018.13 1018.19 1018.23 1018.21 1018.12 1017.95 1017.70 1017.39 1017.05 1016.69 1016.34 1016.00 1015.69 1015.41 1015.15 1014.90 1014.66 1014.42
1019.14 1019.37 1019.58 1019.74 1019.86 1019.94 1019.99 1020.02 1020.06 1020.10 1020.15 1020.20 1020.23 1020.22 1020.14 1019.99 1019.77 1019.49 1019.18 1018.87 1018.60 1018.40 1018.28 1018.26 1018.31 1018.42 1018.54 1018.64 1018.69 1018.67 1018.57 1018.38 1018.14 1017.85 1017.53 1017.21 1016.89 1016.60 1016.31 1016.04 1015.78 1015.52 1015.25
1018.87 1019.09 1019.29 1019.46 1019.59 1019.68 1019.73 1019.78 1019.82 1019.86 1019.90 1019.94 1019.96 1019.94 1019.86 1019.72 1019.52 1019.27 1019.00 1018.73 1018.52 1018.37 1018.30 1018.33 1018.43 1018.58 1018.76 1018.92 1019.03 1019.07 1019.04 1018.93 1018.76 1018.53 1018.27 1017.99 1017.71 1017.44 1017.17 1016.90 1016.63 1016.35 1016.06
1018.49 1018.71 1018.91 1019.08 1019.21 1019.31 1019.38 1019.43 1019.47 1019.51 1019.55 1019.57 1019.58 1019.55 1019.47 1019.34 1019.16 1018.94 1018.72 1018.51 1018.34 1018.25 1018.23 1018.30 1018.45 1018.64 1018.86 1019.06 1019.23 1019.33 1019.36 1019.32 1019.21 1019.05 1018.85 1018.63 1018.40 1018.16 1017.91 1017.65 1017.38 1017.10 1016.80
1017.99 1018.21 1018.41 1018.59 1018.73 1018.85 1018.93 1019.00 1019.05 1019.10 1019.14 1019.16 1019.17 1019.14 1019.06 1018.95 1018.80 1018.62 1018.43 1018.27 1018.16 1018.11 1018.14 1018.25 1018.42 1018.64 1018.88 1019.11 1019.31 1019.45 1019.53 1019.55 1019.50 1019.40 1019.26 1019.10 1018.91 1018.71 1018.49 1018.25 1018.00 1017.72 1017.42
1017.38 1017.60 1017.81 1018.00 1018.17 1018.31 1018.43 1018.53 1018.61 1018.68 1018.74 1018.77 1018.79 1018.77 1018.72 1018.63 1018.51 1018.37 1018.23 1018.11 1018.04 1018.03 1018.09 1018.22 1018.41 1018.63 1018.88 1019.11 1019.32 1019.49 1019.60 1019.65 1019.65 1019.60 1019.52 1019.40 1019.26 1019.10 1018.92 1018.71 1018.47 1018.21 1017.92
1016.66 1016.89 1017.13 1017.34 1017.55 1017.73 1017.89 1018.03 1018.16 1018.27 1018.37 1018.44 1018.49 1018.50 1018.48 1018.43 1018.34 1018.25 1018.15 1018.07 1018.04 1018.05 1018.13 1018.26 1018.45 1018.67 1018.90 1019.13 1019.33 1019.50 1019.61 1019.69 1019.71 1019.70 1019.65 1019.58 1019.48 1019.35 1019.20 1019.02 1018.81 1018.58 1018.31
1015.88 1016.13 1016.38 1016.63 1016.88 1017.11 1017.32 1017.52 1017.71 1017.88 1018.03 1018.16 1018.26 1018.32 1018.35 1018.34 1018.30 1018.24 1018.18 1018.15 1018.14 1018.18 1018.26 1018.40 1018.58 1018.78 1019.00 1019.20 1019.38 1019.54 1019.65 1019.72 1019.76 1019.76 1019.74 1019.69 1019.61 1019.52 1019.40 1019.24 1019.06 1018.85 1018.60
1015.07 1015.33 1015.60 1015.89 1016.17 1016.45 1016.72 1016.99 1017.24 1017.48 1017.70 1017.90 1018.06 1018.19 1018.27 1018.31 1018.32 1018.31 1018.30 1018.30 1018.32 1018.38 1018.48 1018.62 1018.80 1018.99 1019.18 1019.37 1019.53 1019.66 1019.75 1019.81 1019.84 1019.85 1019.83 1019.79 1019.73 1019.65 1019.54 1019.41 1019.25 1019.06 1018.83
1014.25 1014.51 1014.81 1015.12 1015.44 1015.76 1016.09 1016.42 1016.74 1017.05 1017.35 1017.62 1017.85 1018.04 1018.19 1018.29 1018.36 1018.40 1018.43 1018.47 1018.53 1018.62 1018.75 1018.90 1019.08 1019.27 1019.46 1019.63 1019.77 1019.89 1019.96 1020.00 1020.02 1020.01 1019.98 1019.93 1019.87 1019.80 1019.70 1019.57 1019.42 1019.23 1019.01
1013.46 1013.72 1014.02 1014.34 1014.69 1015.05 1015.42 1015.80 1016.19 1016.57 1016.93 1017.27 1017.58 1017.84 1018.05 1018.21 1018.34 1018.44 1018.53 1018.62 1018.72 1018.86 1019.02 1019.21 1019.41 1019.62 1019.81 1019.99 1020.13 1020.23 1020.29 1020.31 1020.30 1020.27 1020.22 1020.16 1020.08 1019.99 1019.88 1019.75 1019.59 1019.40 1019.18
1012.71 1012.96 1013.25 1013.58 1013.94 1014.32 1014.72 1015.15 1015.58 1016.02 1016.44 1016.85 1017.22 1017.55 1017.82 1018.05 1018.24 1018.40 1018.55 1018.70 1018.86 1019.05 1019.27 1019.51 1019.75 1020.00 1020.22 1020.41 1020.56 1020.66 1020.71 1020.72 1020.69 1020.64 1020.56 1020.47 1020.37 1020.25 1020.12 1019.97 1019.79 1019.58 1019.33
1012.01 1012.25 1012.53 1012.85 1013.21 1013.60 1014.02 1014.47 1014.94 1015.42 1015.90 1016.36 1016.79 1017.18 1017.52 1017.81 1018.06 1018.29 1018.50 1018.71 1018.95 1019.20 1019.48 1019.78 1020.09 1020.38 1020.65 1020.87 1021.04 1021.15 1021.20 1021.19 1021.15 1021.07 1020.96 1020.84 1020.71 1020.57 1020.41 1020.22 1020.01 1019.76 1019.47
1011.38 1011.60 1011.87 1012.17 1012.52 1012.91 1013.34 1013.81 1014.31 1014.82 1015.34 1015.85 1016.33 1016.78 1017.17 1017.53 1017.84 1018.13 1018.41 1018.69 1018.99 1019.31 1019.66 1020.03 1020.39 1020.74 1021.05 1021.31 1021.50 1021.62 1021.68 1021.67 1021.61 1021.51 1021.39 1021.24 1021.08 1020.90 1020.71 1020.49 1020.24 1019.95 1019.61
Thickness
5665 5666 5667 5668 5669 5670 5671 5672 5673 5674 5675 5676 5676 5677 5677 5677 5677 5678 5678 5677 5676 5675 5675 5675 5676 5676 5675 5675 5675 5674 5673 5673 5672 5670 5669 5669 5668 5667 5666 5665 5665 5664 5664
5657 5659 5661 5661 5663 5664 5665 5666 5668 5668 5670 5670 5671 5671 5672 5672 5672 5672 5673 5673 5671 5670 5670 5670 5671 5671 5671 5670 5670 5670 5670 5669 5668 5667 5666 5665 5664 5663 5662 5662 5661 5660 5660
5649 5651 5653 5654 5655 5657 5658 5659 5661 5662 5663 5664 5665 5666 5666 5667 5667 5667 5667 5667 5668 5666 5665 5665 5665 5665 5665 5665 5666 5666 5665 5665 5664 5663 5662 5661 5660 5659 5658 5658 5657 5657 5656
5641 5643 5645 5647 5648 5649 5651 5652 5654 5655 5656 5657 5658 5659 5660 5660 5661 5661 5661 5661 5662 5662 5661 5659 5659 5659 5659 5660 5660 5660 5660 5659 5659 5659 5658 5657 5656 5655 5654 5654 5653 5653 5652
5633 5635 5637 5638 5640 5641 5643 5644 5646 5647 5648 5649 5650 5651 5652 5654 5654 5654 5655 5655 5655 5654 5654 5654 5653 5652 5652 5652 5652 5653 5653 5653 5654 5653 5653 5652 5652 5651 5650 5649 5649 5648 5647
5625 5626 5628 5630 5631 5633 5635 5636 5637 5638 5639 5640 5642 5644 5645 5646 5647 5648 5647 5647 5647 5647 5646 5646 5646 5646 5645 5645 5645 5645 5646 5647 5647 5647 5647 5646 5646 5646 5645 5644 5644 5643 5643
5616 5617 5619 5621 5622 5624 5626 5627 5628 5629 5630 5631 5633 5637 5639 5639 5639 5639 5639 5639 5638 5638 5638 5638 5638 5638 5638 5637 5637 5637 5637 5638 5639 5639 5639 5640 5640 5639 5639 5639 5638 5638 5637
5607 5608 5610 5612 5613 5614 5616 5617 5618 5620 5620 5621 5622 5625 5630 5632 5632 5631 5630 5628 5628 5628 5628 5628 5628 5628 5628 5628 5628 5628 5628 5629 5630 5631 5631 5632 5632 5633 5633 5633 5633 5632 5632
5598 5599 5601 5602 5603 5605 5606 5607 5607 5608 5609 5610 5610 5612 5616 5620 5620 5621 5619 5618 5617 5617 5617 5617 5617 5617 5617 5617 5618 5618 5618 5618 5620 5621 5622 5623 5624 5625 5625 5625 5626 5626 5626
5590 5590 5592 5593 5594 5595 5596 5597 5597 5597 5598 5599 5599 5599 5599 5602 5603 5609 5609 5608 5607 5606 5606 5606 5606 5606 5606 5606 5606 5606 5607 5607 5609 5611 5612 5613 5615 5615 5616 5617 5618 5618 5618
5582 5582 5583 5584 5584 5585 5586 5586 5586 5586 5586 5587 5587 5588 5588 5589 5590 5592 5597 5597 5596 5595 5594 5594 5594 5594 5594 5595 5595 5595 5595 5596 5597 5599 5601 5602 5604 5605 5606 5607 5608 5609 5609
5574 5574 5574 5575 5575 5576 5576 5576 5576 5575 5575 5575 5576 5576 5576 5578 5579 5579 5582 5584 5584 5584 5582 5582 5582 5582 5582 5583 5583 5583 5583 5584 5586 5587 5589 5591 5592 5593 5594 5596 5597 5598 5599
5567 5566 5566 5566 5566 5566 5565 5565 5565 5565 5564 5564 5564 5564 5565 5565 5565 5565 5566 5569 5571 5572 5572 5571 5570 5570 5570 5570 5571 5570 5572 5573 5574 5575 5577 5579 5580 5581 5582 5584 5585 5587 5588
5558 5557 5556 5556 5556 5555 5555 5555 5554 5554 5553 5552 5553 5552 5552 5553 5552 5552 5552 5554 5558 5561 5562 5561 5559 5558 5558 5557 5558 5558 5561 5561 5562 5563 5565 5566 5568 5569 5570 5572 5573 5576 5577
5548 5547 5546 5546 5545 5544 5544 5544 5543 5542 5542 5542 5541 5541 5540 5540 5540 5540 5539 5539 5541 5548 5553 5551 5547 5545 5544 5544 5545 5546 5548 5549 5550 5552 5553 5554 5556 5557 5559 5560 5561 5563 5565
5538 5537 5537 5536 5534 5533 5532 5532 5532 5531 5531 5530 5529 5529 5529 5529 5528 5527 5526 5526 5527 5530 5535 5537 5534 5532 5531 5531 5532 5534 5536 5537 5538 5540 5541 5542 5543 5545 5547 5548 5550 5552 5554
5528 5527 5526 5525 5524 5523 5522 5521 5521 5520 5519 5519 5518 5517 5517 5516 5516 5515 5514 5514 5515 5515 5519 5522 5520 5519 5519 5519 5521 5522 5523 5525 5527 5528 5529 5530 5531 5532 5534 5536 5538 5540 5542
5518 5516 5516 5515 5514 5512 5511 5510 5509 5508 5507 5507 5506 5505 5505 5504 5504 5503 5503 5503 5503 5503 5505 5508 5509 5508 5507 5507 5508 5510 5511 5512 5514 5515 5516 5517 5518 5520 5522 5524 5526 5527 5529
5508 5506 5505 5504 5503 5501 5500 5498 5497 5496 5495 5495 5494 5494 5494 5493 5493 5492 5492 5492 5492 5492 5492 5494 5497 5496 5496 5495 5496 5497 5498 5499 5501 5502 5503 5505 5506 5508 5510 5512 5513 5515 5516
5498 5496 5495 5493 5492 5490 5488 5486 5485 5484 5483 5483 5483 5482 5482 5482 5481 5481 5481 5480 5480 5481 5481 5481 5483 5484 5484 5484 5483 5484 5486 5487 5489 5489 5491 5493 5494 5496 5498 5500 5502 5503 5504
5487 5485 5484 5483 5481 5479 5478 5476 5474 5473 5473 5473 5472 5471 5471 5469 5469 5468 5468 5469 5468 5469 5469 5470 5471 5472 5472 5471 5471 5471 5471 5474 5476 5476 5478 5481 5483 5486 5487 5488 5489 5490 5492
5476 5474 5473 5472 5470 5469 5466 5464 5462 5462 5462 5462 5461 5460 5459 5458 5457 5456 5456 5456 5455 5456 5457 5458 5460 5460 5460 5459 5458 5457 5458 5460 5465 5464 5464 5468 5469 5472 5474 5476 5477 5478 5480
5466 5464 5463 5461 5460 5459 5456 5454 5452 5451 5452 5452 5451 5450 5449 5448 5446 5446 5446 5444 5444 5443 5443 5445 5447 5448 5448 5447 5446 5446 5446 5447 5449 5449 5449 5455 5456 5459 5461 5463 5464 5465 5467
5455 5454 5452 5451 5450 5449 5446 5444 5442 5442 5442 5441 5440 5439 5439 5438 5436 5435 5435 5435 5435 5434 5433 5433 5434 5435 5434 5433 5432 5432 5432 5433 5435 5435 5434 5439 5444 5446 5448 5450 5451 5453 5454
5445 5444 5442 5441 5440 5440 5437 5435 5432 5433 5433 5432 5431 5429 5428 5428 5426 5424 5424 5425 5425 5425 5424 5422 5422 5422 5421 5420 5419 5419 5419 5420 5424 5425 5422 5424 5429 5431 5434 5437 5439 5440 5441
5435 5433 5432 5431 5431 5431 5428 5425 5423 5424 5424 5424 5422 5421 5418 5417 5416 5415 5414 5415 5416 5416 5415 5414 5413 5412 5411 5411 5409 5408 5408 5408 5410 5412 5411 5410 5412 5414 5419 5424 5425 5427 5429